Time,TemperatureF,DewpointF,PressureIn,WindDirection,WindDirectionDegrees,WindSpeedMPH,WindSpeedGustMPH,Humidity,HourlyPrecipIn,Conditions,Clouds,dailyrainin,SoftwareType,DateUTC
2013-05-14 00:00:00,59.5,36.5,29.94,South,180,5.6,10.5,42,0.00,,,0.00,WSDL version 423,2013-05-14 05:00:00,
2013-05-14 00:05:00,59.5,36.4,29.94,South,185,5.6,10.5,42,0.00,,,0.00,WSDL version 423,2013-05-14 05:05:00,
2013-05-14 00:10:00,59.5,36.4,29.94,South,188,6.0,7.8,42,0.00,,,0.00,WSDL version 423,2013-05-14 05:10:00,
2013-05-14 00:15:00,59.4,36.3,29.94,South,169,7.2,7.8,42,0.00,,,0.00,WSDL version 423,2013-05-14 05:15:00,
2013-05-14 00:20:00,59.5,36.4,29.94,South,180,6.5,13.0,42,0.00,,,0.00,WSDL version 423,2013-05-14 05:20:00,
2013-05-14 00:25:00,59.4,36.3,29.94,SSE,158,6.1,13.0,42,0.00,,,0.00,WSDL version 423,2013-05-14 05:25:00,
2013-05-14 00:30:00,59.4,36.3,29.94,SSE,161,7.2,10.5,42,0.00,,,0.00,WSDL version 423,2013-05-14 05:30:00,
2013-05-14 00:35:00,59.5,36.4,29.94,South,169,6.1,10.5,42,0.00,,,0.00,WSDL version 423,2013-05-14 05:35:00,
2013-05-14 00:40:00,59.5,36.4,29.91,South,170,5.7,10.3,42,0.00,,,0.00,WSDL version 423,2013-05-14 05:40:00,
2013-05-14 00:45:00,59.4,36.3,29.91,South,174,5.8,9.6,42,0.00,,,0.00,WSDL version 423,2013-05-14 05:45:00,
2013-05-14 00:50:00,59.4,36.3,29.91,SSE,167,7.1,13.0,42,0.00,,,0.00,WSDL version 423,2013-05-14 05:50:00,
2013-05-14 00:55:00,59.3,36.7,29.91,SSE,158,7.2,13.0,43,0.00,,,0.00,WSDL version 423,2013-05-14 05:55:00,
2013-05-14 01:00:00,59.2,36.7,29.91,SSE,163,6.0,10.5,43,0.00,,,0.00,WSDL version 423,2013-05-14 06:00:00,
2013-05-14 01:05:00,59.1,36.6,29.91,SSE,163,6.8,12.5,43,0.00,,,0.00,WSDL version 423,2013-05-14 06:05:00,
2013-05-14 01:10:00,59.0,36.6,29.91,SSE,167,6.7,12.5,43,0.00,,,0.00,WSDL version 423,2013-05-14 06:10:00,
2013-05-14 01:15:00,59.1,36.6,29.91,SSE,167,8.6,12.5,43,0.00,,,0.00,WSDL version 423,2013-05-14 06:15:00,
2013-05-14 01:20:00,59.2,36.7,29.91,South,177,8.0,12.5,43,0.00,,,0.00,WSDL version 423,2013-05-14 06:20:00,
2013-05-14 01:25:00,59.1,36.7,29.91,SSE,158,9.2,13.4,43,0.00,,,0.00,WSDL version 423,2013-05-14 06:25:00,
2013-05-14 01:30:00,59.0,36.6,29.91,South,186,8.5,13.4,43,0.00,,,0.00,WSDL version 423,2013-05-14 06:30:00,
2013-05-14 01:35:00,59.0,36.6,29.91,SSE,164,9.4,17.2,43,0.00,,,0.00,WSDL version 423,2013-05-14 06:35:00,
2013-05-14 01:40:00,59.0,36.6,29.88,SSE,164,9.0,17.2,43,0.00,,,0.00,WSDL version 423,2013-05-14 06:40:00,
2013-05-14 01:45:00,59.2,36.7,29.88,South,176,9.5,14.8,43,0.00,,,0.00,WSDL version 423,2013-05-14 06:45:00,
2013-05-14 01:50:00,59.0,36.7,29.88,South,176,9.5,14.8,44,0.00,,,0.00,WSDL version 423,2013-05-14 06:50:00,
2013-05-14 01:55:00,59.0,37.1,29.88,South,174,8.6,14.8,44,0.00,,,0.00,WSDL version 423,2013-05-14 06:55:00,
2013-05-14 02:01:00,59.0,37.1,29.88,South,178,10.3,16.6,44,0.00,,,0.00,WSDL version 423,2013-05-14 07:01:00,
2013-05-14 02:06:00,58.8,37.4,29.88,South,171,7.9,16.6,45,0.00,,,0.00,WSDL version 423,2013-05-14 07:06:00,
2013-05-14 02:11:00,58.8,37.5,29.88,SSE,158,8.6,12.8,45,0.00,,,0.00,WSDL version 423,2013-05-14 07:11:00,
2013-05-14 02:16:00,58.8,37.5,29.88,South,176,7.4,13.6,45,0.00,,,0.00,WSDL version 423,2013-05-14 07:16:00,
2013-05-14 02:21:00,58.7,37.5,29.88,South,176,8.9,14.5,46,0.00,,,0.00,WSDL version 423,2013-05-14 07:21:00,
2013-05-14 02:26:00,58.6,37.9,29.85,South,170,9.1,14.5,46,0.00,,,0.00,WSDL version 423,2013-05-14 07:26:00,
2013-05-14 02:31:00,58.6,38.0,29.85,South,169,7.3,13.6,47,0.00,,,0.00,WSDL version 423,2013-05-14 07:31:00,
2013-05-14 02:36:00,58.5,38.4,29.85,South,169,9.7,14.8,47,0.00,,,0.00,WSDL version 423,2013-05-14 07:36:00,
2013-05-14 02:41:00,58.5,38.7,29.85,SSE,161,7.7,19.2,48,0.00,,,0.00,WSDL version 423,2013-05-14 07:41:00,
2013-05-14 02:46:00,58.6,39.0,29.85,South,169,8.0,19.2,48,0.00,,,0.00,WSDL version 423,2013-05-14 07:46:00,
2013-05-14 02:51:00,58.5,39.3,29.85,South,169,7.0,15.2,49,0.00,,,0.00,WSDL version 423,2013-05-14 07:51:00,
2013-05-14 02:56:00,58.5,39.4,29.85,SSE,163,8.3,15.2,49,0.00,,,0.00,WSDL version 423,2013-05-14 07:56:00,
2013-05-14 03:01:00,58.3,39.4,29.85,South,188,7.1,14.5,50,0.00,,,0.00,WSDL version 423,2013-05-14 08:01:00,
2013-05-14 03:06:00,58.2,39.6,29.85,South,190,8.6,13.2,50,0.00,,,0.00,WSDL version 423,2013-05-14 08:06:00,
2013-05-14 03:11:00,58.1,39.6,29.85,South,173,7.6,14.5,50,0.00,,,0.00,WSDL version 423,2013-05-14 08:11:00,
2013-05-14 03:16:00,58.1,39.6,29.85,South,173,8.8,14.5,50,0.00,,,0.00,WSDL version 423,2013-05-14 08:16:00,
2013-05-14 03:21:00,57.9,39.9,29.85,SSE,163,8.3,13.2,51,0.00,,,0.00,WSDL version 423,2013-05-14 08:21:00,
2013-05-14 03:26:00,57.9,40.0,29.85,South,173,9.4,19.5,52,0.00,,,0.00,WSDL version 423,2013-05-14 08:26:00,
2013-05-14 03:31:00,57.9,40.1,29.85,South,188,8.1,19.5,52,0.00,,,0.00,WSDL version 423,2013-05-14 08:31:00,
2013-05-14 03:36:00,57.7,40.2,29.85,SSE,158,7.4,14.8,52,0.00,,,0.00,WSDL version 423,2013-05-14 08:36:00,
2013-05-14 03:41:00,57.6,40.1,29.83,South,186,8.1,14.8,52,0.00,,,0.00,WSDL version 423,2013-05-14 08:41:00,
2013-05-14 03:46:00,57.6,40.2,29.83,SSE,165,8.4,13.6,52,0.00,,,0.00,WSDL version 423,2013-05-14 08:46:00,
2013-05-14 03:51:00,57.4,40.3,29.83,SSE,165,8.4,17.4,53,0.00,,,0.00,WSDL version 423,2013-05-14 08:51:00,
2013-05-14 03:56:00,57.2,40.2,29.83,South,180,9.5,17.4,53,0.00,,,0.00,WSDL version 423,2013-05-14 08:56:00,
2013-05-14 04:01:00,57.2,40.2,29.83,South,184,5.4,12.1,53,0.00,,,0.00,WSDL version 423,2013-05-14 09:01:00,
2013-05-14 04:06:00,57.0,40.7,29.83,South,180,7.2,12.1,55,0.00,,,0.00,WSDL version 423,2013-05-14 09:06:00,
2013-05-14 04:11:00,56.8,40.8,29.83,South,180,8.5,12.5,55,0.00,,,0.00,WSDL version 423,2013-05-14 09:11:00,
2013-05-14 04:16:00,56.8,41.1,29.83,South,180,8.0,12.5,55,0.00,,,0.00,WSDL version 423,2013-05-14 09:16:00,
2013-05-14 04:21:00,56.7,41.2,29.83,South,180,9.2,12.3,56,0.00,,,0.00,WSDL version 423,2013-05-14 09:21:00,
2013-05-14 04:26:00,56.7,41.2,29.83,South,171,7.4,12.3,56,0.00,,,0.00,WSDL version 423,2013-05-14 09:26:00,
2013-05-14 04:31:00,56.7,41.3,29.83,South,173,7.9,10.7,56,0.00,,,0.00,WSDL version 423,2013-05-14 09:31:00,
2013-05-14 04:36:00,56.5,41.4,29.83,SSE,167,7.0,12.1,57,0.00,,,0.00,WSDL version 423,2013-05-14 09:36:00,
2013-05-14 04:41:00,56.5,41.4,29.83,South,184,8.5,13.4,57,0.00,,,0.00,WSDL version 423,2013-05-14 09:41:00,
2013-05-14 04:46:00,56.4,41.5,29.83,South,185,7.2,13.4,58,0.00,,,0.00,WSDL version 423,2013-05-14 09:46:00,
2013-05-14 04:51:00,56.4,41.8,29.83,South,186,8.6,12.8,58,0.00,,,0.00,WSDL version 423,2013-05-14 09:51:00,
2013-05-14 04:56:00,56.3,41.7,29.83,South,176,5.8,12.3,58,0.00,,,0.00,WSDL version 423,2013-05-14 09:56:00,
2013-05-14 05:01:00,56.1,41.6,29.83,South,169,5.8,8.7,58,0.00,,,0.00,WSDL version 423,2013-05-14 10:01:00,
2013-05-14 05:06:00,56.0,41.9,29.83,South,171,8.7,13.0,59,0.00,,,0.00,WSDL version 423,2013-05-14 10:06:00,
2013-05-14 05:11:00,55.9,42.1,29.83,South,191,9.3,15.2,60,0.00,,,0.00,WSDL version 423,2013-05-14 10:11:00,
2013-05-14 05:16:00,55.9,42.3,29.83,South,186,7.6,15.2,60,0.00,,,0.00,WSDL version 423,2013-05-14 10:16:00,
2013-05-14 05:21:00,55.9,42.6,29.83,South,180,6.7,12.1,61,0.00,,,0.00,WSDL version 423,2013-05-14 10:21:00,
2013-05-14 05:26:00,55.8,42.5,29.83,South,186,5.5,10.1,61,0.00,,,0.00,WSDL version 423,2013-05-14 10:26:00,
2013-05-14 05:31:00,55.6,42.4,29.83,SSW,203,5.8,8.5,61,0.00,,,0.00,WSDL version 423,2013-05-14 10:31:00,
2013-05-14 05:36:00,55.6,42.7,29.83,SSW,199,5.9,12.3,62,0.00,,,0.00,WSDL version 423,2013-05-14 10:36:00,
2013-05-14 05:41:00,55.6,42.8,29.83,SSW,197,7.5,12.3,62,0.00,,,0.00,WSDL version 423,2013-05-14 10:41:00,
2013-05-14 05:46:00,55.6,43.0,29.83,South,180,5.0,14.8,63,0.00,,,0.00,WSDL version 423,2013-05-14 10:46:00,
2013-05-14 05:51:00,55.4,43.0,29.83,South,189,6.5,14.8,63,0.00,,,0.00,WSDL version 423,2013-05-14 10:51:00,
2013-05-14 05:56:00,55.4,43.3,29.83,South,180,6.9,12.5,64,0.00,,,0.00,WSDL version 423,2013-05-14 10:56:00,
2013-05-14 06:01:00,55.5,43.5,29.83,SSW,194,6.6,12.5,64,0.00,,,0.00,WSDL version 423,2013-05-14 11:01:00,
2013-05-14 06:06:00,55.6,43.8,29.83,South,171,6.8,10.3,65,0.00,,,0.00,WSDL version 423,2013-05-14 11:06:00,
2013-05-14 06:11:00,55.6,44.0,29.80,SSW,197,6.3,10.3,65,0.00,,,0.00,WSDL version 423,2013-05-14 11:11:00,
2013-05-14 06:16:00,55.7,44.4,29.80,South,186,7.4,10.3,66,0.00,,,0.00,WSDL version 423,2013-05-14 11:16:00,
2013-05-14 06:22:00,55.9,44.8,29.80,South,180,5.6,11.9,66,0.00,,,0.00,WSDL version 423,2013-05-14 11:22:00,
2013-05-14 06:27:00,56.0,45.3,29.80,South,189,7.6,11.9,67,0.00,,,0.00,WSDL version 423,2013-05-14 11:27:00,
2013-05-14 06:32:00,56.2,45.4,29.80,South,180,8.1,10.1,67,0.00,,,0.00,WSDL version 423,2013-05-14 11:32:00,
2013-05-14 06:37:00,56.5,45.8,29.80,South,180,9.6,19.0,68,0.00,,,0.00,WSDL version 423,2013-05-14 11:37:00,
2013-05-14 06:42:00,56.8,46.3,29.80,SSW,194,8.8,19.0,68,0.00,,,0.00,WSDL version 423,2013-05-14 11:42:00,
2013-05-14 06:47:00,57.1,46.5,29.80,South,169,7.4,21.5,68,0.00,,,0.00,WSDL version 423,2013-05-14 11:47:00,
2013-05-14 06:52:00,57.5,46.7,29.80,South,169,6.7,21.5,67,0.00,,,0.00,WSDL version 423,2013-05-14 11:52:00,
2013-05-14 06:57:00,57.9,47.0,29.80,South,186,7.2,16.3,67,0.00,,,0.00,WSDL version 423,2013-05-14 11:57:00,
2013-05-14 07:02:00,58.4,47.3,29.80,South,180,7.4,15.4,66,0.00,,,0.00,WSDL version 423,2013-05-14 12:02:00,
2013-05-14 07:07:00,58.9,47.6,29.80,South,184,8.3,15.4,66,0.00,,,0.00,WSDL version 423,2013-05-14 12:07:00,
2013-05-14 07:12:00,59.4,48.0,29.80,South,171,7.5,13.2,66,0.00,,,0.00,WSDL version 423,2013-05-14 12:12:00,
2013-05-14 07:17:00,59.8,48.1,29.80,South,191,8.6,14.8,65,0.00,,,0.00,WSDL version 423,2013-05-14 12:17:00,
2013-05-14 07:22:00,60.3,48.3,29.80,SSW,199,6.3,14.8,65,0.00,,,0.00,WSDL version 423,2013-05-14 12:22:00,
2013-05-14 07:27:00,60.6,48.3,29.80,SSW,196,7.3,14.3,63,0.00,,,0.00,WSDL version 423,2013-05-14 12:27:00,
2013-05-14 07:32:00,61.0,48.3,29.80,SSW,203,7.2,14.3,63,0.00,,,0.00,WSDL version 423,2013-05-14 12:32:00,
2013-05-14 07:37:00,61.4,48.7,29.80,SSW,203,7.3,13.6,63,0.00,,,0.00,WSDL version 423,2013-05-14 12:37:00,
2013-05-14 07:42:00,61.7,49.0,29.80,SSW,203,6.6,12.3,63,0.00,,,0.00,WSDL version 423,2013-05-14 12:42:00,
2013-05-14 07:47:00,62.0,49.0,29.80,South,185,8.8,13.0,62,0.00,,,0.00,WSDL version 423,2013-05-14 12:47:00,
2013-05-14 07:52:00,62.3,49.0,29.80,SSW,209,6.7,13.0,62,0.00,,,0.00,WSDL version 423,2013-05-14 12:52:00,
2013-05-14 07:57:00,62.6,49.4,29.80,South,191,8.5,13.2,62,0.00,,,0.00,WSDL version 423,2013-05-14 12:57:00,
2013-05-14 08:02:00,63.0,49.8,29.80,SSW,199,6.1,13.2,62,0.00,,,0.00,WSDL version 423,2013-05-14 13:02:00,
2013-05-14 08:07:00,63.2,49.7,29.80,SSW,208,6.5,8.7,61,0.00,,,0.00,WSDL version 423,2013-05-14 13:07:00,
2013-05-14 08:12:00,63.3,49.7,29.80,SSW,197,7.7,12.3,61,0.00,,,0.00,WSDL version 423,2013-05-14 13:12:00,
2013-05-14 08:17:00,63.5,49.8,29.80,SSW,209,6.8,13.4,61,0.00,,,0.00,WSDL version 423,2013-05-14 13:17:00,
2013-05-14 08:22:00,63.8,50.1,29.80,SSW,206,7.0,13.4,61,0.00,,,0.00,WSDL version 423,2013-05-14 13:22:00,
2013-05-14 08:27:00,64.2,50.8,29.80,SSW,203,7.1,11.0,62,0.00,,,0.00,WSDL version 423,2013-05-14 13:27:00,
2013-05-14 08:32:00,64.6,51.0,29.80,North,0,0.0,11.0,61,0.00,,,0.00,WSDL version 423,2013-05-14 13:32:00,
2013-05-14 08:37:00,65.1,51.4,29.80,SSW,197,6.9,10.5,61,0.00,,,0.00,WSDL version 423,2013-05-14 13:37:00,
2013-05-14 08:42:00,65.4,51.5,29.80,South,191,6.8,10.5,61,0.00,,,0.00,WSDL version 423,2013-05-14 13:42:00,
2013-05-14 08:47:00,65.8,51.9,29.80,SW,225,5.8,8.5,61,0.00,,,0.00,WSDL version 423,2013-05-14 13:47:00,
2013-05-14 08:52:00,66.2,52.3,29.80,SSW,208,6.1,8.1,61,0.00,,,0.00,WSDL version 423,2013-05-14 13:52:00,
2013-05-14 08:57:00,66.5,52.2,29.80,SW,216,6.7,8.7,60,0.00,,,0.00,WSDL version 423,2013-05-14 13:57:00,
2013-05-14 09:02:00,66.9,52.6,29.80,South,184,7.0,9.8,60,0.00,,,0.00,WSDL version 423,2013-05-14 14:02:00,
2013-05-14 09:07:00,67.3,53.2,29.80,SSW,203,7.1,10.1,60,0.00,,,0.00,WSDL version 423,2013-05-14 14:07:00,
2013-05-14 09:12:00,67.6,53.0,29.77,SSW,203,5.9,10.1,60,0.00,,,0.00,WSDL version 423,2013-05-14 14:12:00,
2013-05-14 09:17:00,67.9,53.2,29.77,SSW,207,7.7,13.2,59,0.00,,,0.00,WSDL version 423,2013-05-14 14:17:00,
2013-05-14 09:22:00,68.3,53.4,29.77,SSW,203,5.7,13.2,59,0.00,,,0.00,WSDL version 423,2013-05-14 14:22:00,
2013-05-14 09:27:00,68.6,53.9,29.77,South,173,6.7,10.3,59,0.00,,,0.00,WSDL version 423,2013-05-14 14:27:00,
2013-05-14 09:32:00,69.2,54.6,29.77,SSW,195,5.0,10.3,60,0.00,,,0.00,WSDL version 423,2013-05-14 14:32:00,
2013-05-14 09:37:00,69.7,55.1,29.77,SSW,203,6.9,8.5,59,0.00,,,0.00,WSDL version 423,2013-05-14 14:37:00,
2013-05-14 09:42:00,70.0,54.9,29.77,SSW,203,6.4,8.5,59,0.00,,,0.00,WSDL version 423,2013-05-14 14:42:00,
2013-05-14 09:47:00,70.4,55.4,29.77,SSW,203,5.4,8.5,60,0.00,,,0.00,WSDL version 423,2013-05-14 14:47:00,
2013-05-14 09:52:00,70.8,55.5,29.77,SW,218,5.2,12.3,58,0.00,,,0.00,WSDL version 423,2013-05-14 14:52:00,
2013-05-14 09:57:00,71.0,55.5,29.77,SW,219,6.3,12.3,58,0.00,,,0.00,WSDL version 423,2013-05-14 14:57:00,
2013-05-14 10:02:00,71.3,55.5,29.77,SW,214,6.6,10.1,58,0.00,,,0.00,WSDL version 423,2013-05-14 15:02:00,
2013-05-14 10:07:00,71.7,55.8,29.77,South,189,7.6,10.5,57,0.00,,,0.00,WSDL version 423,2013-05-14 15:07:00,
2013-05-14 10:12:00,72.0,56.2,29.77,SSW,203,6.4,10.5,58,0.00,,,0.00,WSDL version 423,2013-05-14 15:12:00,
2013-05-14 10:17:00,72.2,55.9,29.77,SW,222,6.3,10.5,56,0.00,,,0.00,WSDL version 423,2013-05-14 15:17:00,
2013-05-14 10:22:00,72.5,56.4,29.77,SSW,203,6.5,10.1,57,0.00,,,0.00,WSDL version 423,2013-05-14 15:22:00,
2013-05-14 10:27:00,72.8,57.0,29.77,SSW,203,5.6,10.1,58,0.00,,,0.00,WSDL version 423,2013-05-14 15:27:00,
2013-05-14 10:32:00,73.4,57.4,29.77,WSW,257,3.9,7.8,57,0.00,,,0.00,WSDL version 423,2013-05-14 15:32:00,
2013-05-14 10:37:00,73.9,58.2,29.77,SW,231,4.7,7.8,58,0.00,,,0.00,WSDL version 423,2013-05-14 15:37:00,
2013-05-14 10:42:00,74.6,58.5,29.77,South,184,5.4,8.5,56,0.00,,,0.00,WSDL version 423,2013-05-14 15:42:00,
2013-05-14 10:47:00,75.1,58.1,29.77,SSW,207,5.1,9.4,55,0.00,,,0.00,WSDL version 423,2013-05-14 15:47:00,
2013-05-14 10:52:00,75.5,57.7,29.77,SW,225,6.0,9.4,54,0.00,,,0.00,WSDL version 423,2013-05-14 15:52:00,
2013-05-14 10:57:00,75.7,57.9,29.77,SSW,203,5.0,8.7,54,0.00,,,0.00,WSDL version 423,2013-05-14 15:57:00,
2013-05-14 11:02:00,76.0,58.6,29.77,SW,217,4.6,7.8,55,0.00,,,0.00,WSDL version 423,2013-05-14 16:02:00,
2013-05-14 11:07:00,76.4,58.9,29.77,WSW,255,4.1,7.8,54,0.00,,,0.00,WSDL version 423,2013-05-14 16:07:00,
2013-05-14 11:12:00,76.6,58.3,29.77,SW,225,4.5,8.7,53,0.00,,,0.00,WSDL version 423,2013-05-14 16:12:00,
2013-05-14 11:17:00,76.7,58.6,29.77,West,259,3.3,8.7,54,0.00,,,0.00,WSDL version 423,2013-05-14 16:17:00,
2013-05-14 11:22:00,77.0,58.3,29.77,SSW,203,4.5,6.5,52,0.00,,,0.00,WSDL version 423,2013-05-14 16:22:00,
2013-05-14 11:27:00,77.2,58.4,29.77,WSW,244,4.4,7.8,52,0.00,,,0.00,WSDL version 423,2013-05-14 16:27:00,
2013-05-14 11:32:00,77.5,58.7,29.77,WSW,238,4.3,10.3,53,0.00,,,0.00,WSDL version 423,2013-05-14 16:32:00,
2013-05-14 11:37:00,77.7,58.5,29.77,WSW,248,3.3,10.3,51,0.00,,,0.00,WSDL version 423,2013-05-14 16:37:00,
2013-05-14 11:42:00,77.8,58.4,29.77,SW,219,4.4,6.3,53,0.00,,,0.00,WSDL version 423,2013-05-14 16:42:00,
2013-05-14 11:47:00,78.3,59.5,29.77,SW,233,4.5,8.1,53,0.00,,,0.00,WSDL version 423,2013-05-14 16:47:00,
2013-05-14 11:52:00,78.5,59.2,29.77,SSW,207,3.0,8.1,52,0.00,,,0.00,WSDL version 423,2013-05-14 16:52:00,
2013-05-14 11:57:00,78.8,59.6,29.77,SW,225,4.3,7.6,52,0.00,,,0.00,WSDL version 423,2013-05-14 16:57:00,
2013-05-14 12:02:00,79.0,59.2,29.77,SSW,206,4.4,7.6,51,0.00,,,0.00,WSDL version 423,2013-05-14 17:02:00,
2013-05-14 12:07:00,79.2,60.5,29.77,WSW,239,4.0,6.0,53,0.00,,,0.00,WSDL version 423,2013-05-14 17:07:00,
2013-05-14 12:12:00,79.7,61.2,29.77,SSW,210,6.5,7.2,53,0.00,,,0.00,WSDL version 423,2013-05-14 17:12:00,
2013-05-14 12:17:00,80.0,60.7,29.77,ESE,113,4.0,7.8,52,0.00,,,0.00,WSDL version 423,2013-05-14 17:17:00,
2013-05-14 12:22:00,80.2,61.4,29.77,SSW,203,5.3,7.8,53,0.00,,,0.00,WSDL version 423,2013-05-14 17:22:00,
2013-05-14 12:27:00,80.4,60.6,29.77,SSW,208,6.4,9.6,51,0.00,,,0.00,WSDL version 423,2013-05-14 17:27:00,
2013-05-14 12:32:00,80.5,60.9,29.77,SW,233,5.1,9.6,51,0.00,,,0.00,WSDL version 423,2013-05-14 17:32:00,
2013-05-14 12:37:00,80.7,60.9,29.77,WSW,248,2.8,8.1,51,0.00,,,0.00,WSDL version 423,2013-05-14 17:37:00,
2013-05-14 12:42:00,80.8,60.8,29.77,SW,236,4.2,6.5,51,0.00,,,0.00,WSDL version 423,2013-05-14 17:42:00,
2013-05-14 12:47:00,81.0,61.2,29.77,East,98,2.9,5.8,51,0.00,,,0.00,WSDL version 423,2013-05-14 17:47:00,
2013-05-14 12:52:00,81.3,61.2,29.77,SSW,203,5.9,11.0,50,0.00,,,0.00,WSDL version 423,2013-05-14 17:52:00,
2013-05-14 12:57:00,81.6,61.5,29.77,WSW,242,4.5,11.0,51,0.00,,,0.00,WSDL version 423,2013-05-14 17:57:00,
2013-05-14 13:02:00,81.7,61.3,29.77,South,186,5.2,7.8,50,0.00,,,0.00,WSDL version 423,2013-05-14 18:02:00,
2013-05-14 13:07:00,82.0,61.5,29.77,South,191,6.0,7.8,49,0.00,,,0.00,WSDL version 423,2013-05-14 18:07:00,
2013-05-14 13:12:00,82.1,61.2,29.77,SSW,196,4.2,7.6,49,0.00,,,0.00,WSDL version 423,2013-05-14 18:12:00,
2013-05-14 13:17:00,82.4,61.0,29.77,South,180,5.5,7.6,49,0.00,,,0.00,WSDL version 423,2013-05-14 18:17:00,
2013-05-14 13:22:00,82.7,61.6,29.77,SSW,199,4.4,7.6,49,0.00,,,0.00,WSDL version 423,2013-05-14 18:22:00,
2013-05-14 13:27:00,83.0,62.4,29.77,South,189,4.5,8.5,51,0.00,,,0.00,WSDL version 423,2013-05-14 18:27:00,
2013-05-14 13:32:00,83.5,63.2,29.77,South,188,5.3,8.5,50,0.00,,,0.00,WSDL version 423,2013-05-14 18:32:00,
2013-05-14 13:37:00,83.6,62.6,29.77,SW,214,5.7,8.1,48,0.00,,,0.00,WSDL version 423,2013-05-14 18:37:00,
2013-05-14 13:42:00,83.7,62.5,29.77,South,180,5.8,8.5,49,0.00,,,0.00,WSDL version 423,2013-05-14 18:42:00,
2013-05-14 13:47:00,83.8,62.8,29.77,South,185,5.5,8.5,49,0.00,,,0.00,WSDL version 423,2013-05-14 18:47:00,
2013-05-14 13:52:00,83.8,62.5,29.77,SSW,195,6.6,10.1,48,0.00,,,0.00,WSDL version 423,2013-05-14 18:52:00,
2013-05-14 13:57:00,83.8,62.2,29.74,South,189,5.4,11.0,49,0.00,,,0.00,WSDL version 423,2013-05-14 18:57:00,
2013-05-14 14:02:00,83.8,62.3,29.74,South,169,7.7,12.1,48,0.00,,,0.00,WSDL version 423,2013-05-14 19:02:00,
2013-05-14 14:07:00,83.8,62.1,29.74,South,186,5.3,12.5,48,0.00,,,0.00,WSDL version 423,2013-05-14 19:07:00,
2013-05-14 14:12:00,84.0,62.0,29.74,SSW,212,8.2,12.5,47,0.00,,,0.00,WSDL version 423,2013-05-14 19:12:00,
2013-05-14 14:17:00,84.0,61.8,29.74,SW,219,5.5,10.1,48,0.00,,,0.00,WSDL version 423,2013-05-14 19:17:00,
2013-05-14 14:22:00,84.0,61.6,29.74,South,185,4.5,7.8,47,0.00,,,0.00,WSDL version 423,2013-05-14 19:22:00,
2013-05-14 14:27:00,84.2,61.8,29.74,SW,216,5.2,10.1,47,0.00,,,0.00,WSDL version 423,2013-05-14 19:27:00,
2013-05-14 14:32:00,84.3,62.1,29.74,SSW,203,4.8,10.1,47,0.00,,,0.00,WSDL version 423,2013-05-14 19:32:00,
2013-05-14 14:37:00,84.4,62.1,29.74,SW,225,5.7,8.5,47,0.00,,,0.00,WSDL version 423,2013-05-14 19:37:00,
2013-05-14 14:42:00,84.5,61.8,29.74,SSW,197,5.8,10.3,47,0.00,,,0.00,WSDL version 423,2013-05-14 19:42:00,
2013-05-14 14:47:00,84.5,62.2,29.74,SSW,203,5.1,10.3,47,0.00,,,0.00,WSDL version 423,2013-05-14 19:47:00,
2013-05-14 14:52:00,84.4,62.3,29.74,SW,225,4.4,9.2,48,0.00,,,0.00,WSDL version 423,2013-05-14 19:52:00,
2013-05-14 14:57:00,84.6,62.2,29.74,SW,219,4.7,6.7,47,0.00,,,0.00,WSDL version 423,2013-05-14 19:57:00,
2013-05-14 15:02:00,84.6,62.3,29.74,South,180,3.7,6.5,48,0.00,,,0.00,WSDL version 423,2013-05-14 20:02:00,
2013-05-14 15:07:00,84.7,62.4,29.74,South,189,6.3,10.1,47,0.00,,,0.00,WSDL version 423,2013-05-14 20:07:00,
2013-05-14 15:12:00,84.6,62.4,29.74,SSW,208,5.0,11.9,48,0.00,,,0.00,WSDL version 423,2013-05-14 20:12:00,
2013-05-14 15:17:00,84.5,61.8,29.74,South,191,4.9,11.9,47,0.00,,,0.00,WSDL version 423,2013-05-14 20:17:00,
2013-05-14 15:22:00,84.3,61.3,29.74,South,176,5.6,8.5,45,0.00,,,0.00,WSDL version 423,2013-05-14 20:22:00,
2013-05-14 15:27:00,84.2,60.9,29.74,SW,225,4.4,8.7,46,0.00,,,0.00,WSDL version 423,2013-05-14 20:27:00,
2013-05-14 15:32:00,84.4,61.4,29.74,SW,225,6.3,8.7,46,0.00,,,0.00,WSDL version 423,2013-05-14 20:32:00,
2013-05-14 15:37:00,84.4,61.4,29.74,SSW,198,4.0,7.2,46,0.00,,,0.00,WSDL version 423,2013-05-14 20:37:00,
2013-05-14 15:42:00,84.4,61.4,29.74,SW,214,4.8,10.3,46,0.00,,,0.00,WSDL version 423,2013-05-14 20:42:00,
2013-05-14 15:47:00,84.5,61.2,29.74,SSW,197,7.8,11.0,45,0.00,,,0.00,WSDL version 423,2013-05-14 20:47:00,
2013-05-14 15:52:00,84.4,61.4,29.74,SSW,203,6.3,11.0,46,0.00,,,0.00,WSDL version 423,2013-05-14 20:52:00,
2013-05-14 15:57:00,84.3,61.3,29.71,South,180,6.9,10.1,46,0.00,,,0.00,WSDL version 423,2013-05-14 20:57:00,
2013-05-14 16:02:00,84.2,61.1,29.71,South,180,7.9,10.7,46,0.00,,,0.00,WSDL version 423,2013-05-14 21:02:00,
2013-05-14 16:07:00,84.2,61.4,29.71,South,188,5.7,10.7,46,0.00,,,0.00,WSDL version 423,2013-05-14 21:07:00,
2013-05-14 16:12:00,84.4,61.8,29.71,South,189,5.1,8.1,46,0.00,,,0.00,WSDL version 423,2013-05-14 21:12:00,
2013-05-14 16:17:00,84.2,61.6,29.71,SSW,208,4.1,8.7,47,0.00,,,0.00,WSDL version 423,2013-05-14 21:17:00,
2013-05-14 16:22:00,84.2,61.8,29.71,SSW,203,7.2,8.7,47,0.00,,,0.00,WSDL version 423,2013-05-14 21:22:00,
2013-05-14 16:27:00,84.2,62.3,29.71,SSW,203,4.9,7.6,48,0.00,,,0.00,WSDL version 423,2013-05-14 21:27:00,
2013-05-14 16:32:00,84.2,61.6,29.71,South,180,8.3,11.0,46,0.00,,,0.00,WSDL version 423,2013-05-14 21:32:00,
2013-05-14 16:37:00,84.2,61.7,29.71,South,186,6.6,11.0,47,0.00,,,0.00,WSDL version 423,2013-05-14 21:37:00,
2013-05-14 16:42:00,84.0,61.6,29.71,SSW,203,6.0,10.5,47,0.00,,,0.00,WSDL version 423,2013-05-14 21:42:00,
2013-05-14 16:47:00,84.0,61.6,29.71,SSE,167,7.2,13.0,47,0.00,,,0.00,WSDL version 423,2013-05-14 21:47:00,
2013-05-14 16:52:00,84.0,61.2,29.71,SSW,197,6.0,13.0,46,0.00,,,0.00,WSDL version 423,2013-05-14 21:52:00,
2013-05-14 16:57:00,83.8,60.9,29.71,South,180,7.3,12.1,46,0.00,,,0.00,WSDL version 423,2013-05-14 21:57:00,
2013-05-14 17:02:00,83.8,61.0,29.71,South,191,5.7,12.1,47,0.00,,,0.00,WSDL version 423,2013-05-14 22:02:00,
2013-05-14 17:07:00,83.8,61.5,29.71,SSW,195,6.5,8.1,47,0.00,,,0.00,WSDL version 423,2013-05-14 22:07:00,
2013-05-14 17:12:00,83.8,61.4,29.71,SSE,152,6.9,11.0,46,0.00,,,0.00,WSDL version 423,2013-05-14 22:12:00,
2013-05-14 17:17:00,83.8,60.9,29.71,South,180,6.0,11.0,46,0.00,,,0.00,WSDL version 423,2013-05-14 22:17:00,
2013-05-14 17:22:00,83.8,60.9,29.71,South,180,8.1,10.3,46,0.00,,,0.00,WSDL version 423,2013-05-14 22:22:00,
2013-05-14 17:27:00,83.7,60.7,29.71,SSW,203,3.4,10.3,46,0.00,,,0.00,WSDL version 423,2013-05-14 22:27:00,
2013-05-14 17:32:00,83.8,60.8,29.71,SSE,158,6.7,9.8,46,0.00,,,0.00,WSDL version 423,2013-05-14 22:32:00,
2013-05-14 17:37:00,83.7,60.5,29.71,SSW,195,6.6,12.1,46,0.00,,,0.00,WSDL version 423,2013-05-14 22:37:00,
2013-05-14 17:42:00,83.7,60.5,29.71,South,169,9.4,12.1,46,0.00,,,0.00,WSDL version 423,2013-05-14 22:42:00,
2013-05-14 17:47:00,83.7,60.7,29.71,South,180,5.8,10.7,46,0.00,,,0.00,WSDL version 423,2013-05-14 22:47:00,
2013-05-14 17:52:00,83.7,60.7,29.71,SSW,203,5.7,8.1,46,0.00,,,0.00,WSDL version 423,2013-05-14 22:52:00,
2013-05-14 17:57:00,83.7,60.7,29.68,SSW,195,6.5,8.7,46,0.00,,,0.00,WSDL version 423,2013-05-14 22:57:00,
2013-05-14 18:02:00,83.7,60.7,29.68,SSW,203,5.2,9.8,46,0.00,,,0.00,WSDL version 423,2013-05-14 23:02:00,
2013-05-14 18:07:00,83.7,60.1,29.68,SSE,158,9.2,9.8,45,0.00,,,0.00,WSDL version 423,2013-05-14 23:07:00,
2013-05-14 18:12:00,83.7,60.1,29.68,South,180,6.3,13.2,45,0.00,,,0.00,WSDL version 423,2013-05-14 23:12:00,
2013-05-14 18:17:00,83.7,59.7,29.68,South,191,10.6,13.2,44,0.00,,,0.00,WSDL version 423,2013-05-14 23:17:00,
2013-05-14 18:22:00,83.5,59.4,29.68,South,191,6.3,13.0,44,0.00,,,0.00,WSDL version 423,2013-05-14 23:22:00,
2013-05-14 18:27:00,83.4,59.5,29.68,SSW,212,5.3,12.3,45,0.00,,,0.00,WSDL version 423,2013-05-14 23:27:00,
2013-05-14 18:32:00,83.2,59.7,29.68,South,186,6.7,10.5,45,0.00,,,0.00,WSDL version 423,2013-05-14 23:32:00,
2013-05-14 18:37:00,83.1,59.5,29.68,SW,214,5.7,10.5,45,0.00,,,0.00,WSDL version 423,2013-05-14 23:37:00,
2013-05-14 18:42:00,82.8,59.3,29.68,South,191,9.7,14.8,45,0.00,,,0.00,WSDL version 423,2013-05-14 23:42:00,
2013-05-14 18:47:00,82.8,58.6,29.68,SSW,194,7.4,14.8,44,0.00,,,0.00,WSDL version 423,2013-05-14 23:47:00,
2013-05-14 18:52:00,82.7,58.6,29.68,SSW,198,9.8,12.3,44,0.00,,,0.00,WSDL version 423,2013-05-14 23:52:00,
2013-05-14 18:57:00,82.6,58.4,29.68,SSW,194,9.0,15.9,43,0.00,,,0.00,WSDL version 423,2013-05-14 23:57:00,
2013-05-14 19:02:00,82.5,58.4,29.68,South,188,7.2,15.9,44,0.00,,,0.00,WSDL version 423,2013-05-15 00:02:00,
2013-05-14 19:07:00,82.3,57.9,29.68,SSW,197,7.5,15.4,43,0.00,,,0.00,WSDL version 423,2013-05-15 00:07:00,
2013-05-14 19:12:00,82.2,57.5,29.68,South,188,7.3,15.4,43,0.00,,,0.00,WSDL version 423,2013-05-15 00:12:00,
2013-05-14 19:17:00,82.0,57.3,29.68,South,188,8.5,9.8,43,0.00,,,0.00,WSDL version 423,2013-05-15 00:17:00,
2013-05-14 19:22:00,81.7,57.1,29.68,South,180,6.6,9.8,43,0.00,,,0.00,WSDL version 423,2013-05-15 00:22:00,
2013-05-14 19:27:00,81.5,56.9,29.68,South,191,7.5,9.6,43,0.00,,,0.00,WSDL version 423,2013-05-15 00:27:00,
2013-05-14 19:32:00,81.2,56.6,29.68,South,191,5.6,9.6,43,0.00,,,0.00,WSDL version 423,2013-05-15 00:32:00,
2013-05-14 19:37:00,81.0,56.7,29.68,South,180,6.5,11.4,44,0.00,,,0.00,WSDL version 423,2013-05-15 00:37:00,
2013-05-14 19:42:00,80.7,56.5,29.68,SSW,203,7.5,12.3,43,0.00,,,0.00,WSDL version 423,2013-05-15 00:42:00,
2013-05-14 19:47:00,80.5,56.4,29.68,SSW,203,5.0,12.3,44,0.00,,,0.00,WSDL version 423,2013-05-15 00:47:00,
2013-05-14 19:52:00,80.2,56.4,29.68,South,176,6.2,8.7,44,0.00,,,0.00,WSDL version 423,2013-05-15 00:52:00,
2013-05-14 19:57:00,79.9,56.1,29.68,SSW,198,6.5,10.1,44,0.00,,,0.00,WSDL version 423,2013-05-15 00:57:00,
2013-05-14 20:02:00,79.6,56.2,29.68,SSW,198,5.1,10.1,45,0.00,,,0.00,WSDL version 423,2013-05-15 01:02:00,
2013-05-14 20:07:00,79.2,56.1,29.68,SSW,203,4.3,7.2,45,0.00,,,0.00,WSDL version 423,2013-05-15 01:07:00,
2013-05-14 20:12:00,78.8,55.7,29.68,SSW,203,5.5,8.1,45,0.00,,,0.00,WSDL version 423,2013-05-15 01:12:00,
2013-05-14 20:17:00,78.5,56.1,29.68,South,191,5.4,8.1,46,0.00,,,0.00,WSDL version 423,2013-05-15 01:17:00,
2013-05-14 20:22:00,78.2,55.7,29.68,SSW,203,4.5,8.1,46,0.00,,,0.00,WSDL version 423,2013-05-15 01:22:00,
2013-05-14 20:27:00,77.9,55.5,29.68,SSW,197,4.1,8.1,46,0.00,,,0.00,WSDL version 423,2013-05-15 01:27:00,
2013-05-14 20:32:00,77.5,55.4,29.68,SSW,208,3.5,7.6,47,0.00,,,0.00,WSDL version 423,2013-05-15 01:32:00,
2013-05-14 20:37:00,77.3,55.5,29.68,SW,214,5.1,7.6,47,0.00,,,0.00,WSDL version 423,2013-05-15 01:37:00,
2013-05-14 20:42:00,77.1,55.4,29.68,SSW,195,4.9,7.8,47,0.00,,,0.00,WSDL version 423,2013-05-15 01:42:00,
2013-05-14 20:47:00,76.9,55.1,29.68,SSW,207,4.8,7.8,47,0.00,,,0.00,WSDL version 423,2013-05-15 01:47:00,
2013-05-14 20:52:00,76.6,55.1,29.68,SSW,197,5.1,7.6,48,0.00,,,0.00,WSDL version 423,2013-05-15 01:52:00,
2013-05-14 20:57:00,76.3,55.2,29.68,South,191,5.1,7.6,48,0.00,,,0.00,WSDL version 423,2013-05-15 01:57:00,
2013-05-14 21:02:00,76.2,55.1,29.68,SSW,203,5.1,7.6,48,0.00,,,0.00,WSDL version 423,2013-05-15 02:02:00,
2013-05-14 21:07:00,76.1,55.0,29.68,SSW,203,5.6,7.2,48,0.00,,,0.00,WSDL version 423,2013-05-15 02:07:00,
2013-05-14 21:12:00,76.1,55.0,29.68,SSW,210,5.4,7.4,48,0.00,,,0.00,WSDL version 423,2013-05-15 02:12:00,
2013-05-14 21:17:00,75.9,54.8,29.68,SSW,194,5.5,8.1,48,0.00,,,0.00,WSDL version 423,2013-05-15 02:17:00,
2013-05-14 21:22:00,75.8,54.7,29.68,SSW,198,6.6,8.1,48,0.00,,,0.00,WSDL version 423,2013-05-15 02:22:00,
2013-05-14 21:27:00,75.7,54.7,29.68,SSW,199,5.6,8.1,48,0.00,,,0.00,WSDL version 423,2013-05-15 02:27:00,
2013-05-14 21:32:00,75.7,54.7,29.68,South,191,5.8,8.7,48,0.00,,,0.00,WSDL version 423,2013-05-15 02:32:00,
2013-05-14 21:37:00,75.6,54.5,29.68,South,191,5.8,8.7,48,0.00,,,0.00,WSDL version 423,2013-05-15 02:37:00,
2013-05-14 21:42:00,75.6,54.5,29.71,SSW,203,7.1,12.3,48,0.00,,,0.00,WSDL version 423,2013-05-15 02:42:00,
2013-05-14 21:47:00,75.5,54.5,29.71,SW,219,6.3,12.3,48,0.00,,,0.00,WSDL version 423,2013-05-15 02:47:00,
2013-05-14 21:52:00,75.6,54.5,29.71,SSW,203,5.5,12.3,48,0.00,,,0.00,WSDL version 423,2013-05-15 02:52:00,
2013-05-14 21:57:00,75.4,54.4,29.71,SSW,199,6.3,12.3,48,0.00,,,0.00,WSDL version 423,2013-05-15 02:57:00,
2013-05-14 22:02:00,75.4,54.4,29.71,SW,214,5.6,10.1,48,0.00,,,0.00,WSDL version 423,2013-05-15 03:02:00,
2013-05-14 22:07:00,75.3,54.3,29.71,SSE,165,6.7,10.1,48,0.00,,,0.00,WSDL version 423,2013-05-15 03:07:00,
2013-05-14 22:12:00,75.2,54.2,29.71,South,191,7.9,10.7,48,0.00,,,0.00,WSDL version 423,2013-05-15 03:12:00,
2013-05-14 22:17:00,75.1,54.1,29.71,SSW,208,6.0,10.7,48,0.00,,,0.00,WSDL version 423,2013-05-15 03:17:00,
2013-05-14 22:22:00,75.0,54.0,29.71,SSW,208,6.6,9.6,48,0.00,,,0.00,WSDL version 423,2013-05-15 03:22:00,
2013-05-14 22:27:00,75.0,54.0,29.71,SSE,158,6.7,11.4,48,0.00,,,0.00,WSDL version 423,2013-05-15 03:27:00,
2013-05-14 22:32:00,75.0,54.0,29.71,SSW,194,6.8,11.4,48,0.00,,,0.00,WSDL version 423,2013-05-15 03:32:00,
2013-05-14 22:37:00,75.0,54.0,29.71,SSW,199,6.0,10.5,48,0.00,,,0.00,WSDL version 423,2013-05-15 03:37:00,
2013-05-14 22:42:00,74.9,53.9,29.71,SSW,197,6.4,9.4,48,0.00,,,0.00,WSDL version 423,2013-05-15 03:42:00,
2013-05-14 22:47:00,75.0,54.0,29.71,SSW,203,6.5,9.8,48,0.00,,,0.00,WSDL version 423,2013-05-15 03:47:00,
2013-05-14 22:52:00,75.0,54.0,29.71,South,189,6.8,9.8,48,0.00,,,0.00,WSDL version 423,2013-05-15 03:52:00,
2013-05-14 22:57:00,75.1,53.7,29.71,SSW,210,6.5,9.8,47,0.00,,,0.00,WSDL version 423,2013-05-15 03:57:00,
2013-05-14 23:01:00,75.2,53.6,29.71,SSW,203,6.7,8.7,47,0.00,,,0.00,WSDL version 423,2013-05-15 04:01:00,
2013-05-14 23:03:00,75.3,53.7,29.71,SSW,210,6.0,8.7,47,0.00,,,0.00,WSDL version 423,2013-05-15 04:03:00,
2013-05-14 23:05:00,75.3,53.7,29.71,SSW,203,6.0,8.7,47,0.00,,,0.00,WSDL version 423,2013-05-15 04:05:00,
2013-05-14 23:06:00,75.3,53.7,29.71,SSW,203,6.2,8.5,47,0.00,,,0.00,WSDL version 423,2013-05-15 04:06:00,
2013-05-14 23:07:00,75.2,53.6,29.71,SSW,203,6.4,8.7,47,0.00,,,0.00,WSDL version 423,2013-05-15 04:07:00,
2013-05-14 23:12:00,75.2,53.6,29.71,SSW,203,6.6,10.7,47,0.00,,,0.00,WSDL version 423,2013-05-15 04:12:00,
2013-05-14 23:17:00,75.2,53.6,29.71,SW,214,7.4,10.7,47,0.00,,,0.00,WSDL version 423,2013-05-15 04:17:00,
2013-05-14 23:22:00,75.4,53.3,29.71,SW,222,6.7,10.3,46,0.00,,,0.00,WSDL version 423,2013-05-15 04:22:00,
2013-05-14 23:27:00,75.4,53.2,29.71,SSW,194,8.1,10.5,46,0.00,,,0.00,WSDL version 423,2013-05-15 04:27:00,
2013-05-14 23:32:00,75.6,53.4,29.71,SW,218,8.0,12.3,46,0.00,,,0.00,WSDL version 423,2013-05-15 04:32:00,
2013-05-14 23:37:00,75.6,53.4,29.71,SSW,203,8.1,12.3,46,0.00,,,0.00,WSDL version 423,2013-05-15 04:37:00,
2013-05-14 23:42:00,75.7,53.4,29.71,South,188,8.1,12.3,46,0.00,,,0.00,WSDL version 423,2013-05-15 04:42:00,
2013-05-14 23:47:00,75.6,53.3,29.71,SSW,203,6.5,10.3,46,0.00,,,0.00,WSDL version 423,2013-05-15 04:47:00,
2013-05-14 23:52:00,75.6,53.0,29.71,SSW,206,7.9,10.5,45,0.00,,,0.00,WSDL version 423,2013-05-15 04:52:00,
2013-05-14 23:57:00,75.6,52.8,29.71,South,191,7.6,10.5,45,0.00,,,0.00,WSDL version 423,2013-05-15 04:57:00,